Location: Unspecified
(0.0000°N, 0.0000°E)
Time: 00:23:44
(UTC+00:00)

USA 281 - Visible Passes

Search period start: 21 May 2019 00:00
Search period end: 31 May 2019 00:00
Orbit: 1078 x 1081 km, 106.0° (Epoch: 14 May)

Date Brightness Start Highest point End Pass type
(mag) Time Alt. Az. Time Alt. Az. Time Alt. Az.
21 May ? 21:05:44 13° N 21:05:44 13° N 21:06:23 10° N visible
23 May ? 21:11:10 12° N 21:11:10 12° N 21:11:37 10° N visible
25 May ? 21:16:36 11° N 21:16:36 11° N 21:16:52 10° N visible
27 May ? 21:22:01 10° N 21:22:01 10° N 21:22:07 10° N visible
